TimeEDT,TemperatureF,Dew PointF,Humidity,Sea Level PressureIn,VisibilityMPH,Wind Direction,Wind SpeedMPH,Gust SpeedMPH,PrecipitationIn,Events,Conditions,WindDirDegrees,DateUTC
12:15 AM,64.4,48.2,56,30.02,10.0,North,9.2,17.3,N/A,,Unknown,10,2012-10-07 04:15:00
12:35 AM,64.4,46.4,52,30.02,10.0,North,10.4,16.1,N/A,,Unknown,360,2012-10-07 04:35:00
12:55 AM,64.4,48.2,56,30.03,10.0,North,6.9,-,N/A,,Unknown,10,2012-10-07 04:55:00
1:15 AM,64.4,46.4,52,30.02,10.0,NNE,9.2,16.1,N/A,,Unknown,20,2012-10-07 05:15:00
1:35 AM,62.6,44.6,52,30.03,10.0,NNE,5.8,-,N/A,,Unknown,20,2012-10-07 05:35:00
1:55 AM,62.6,44.6,52,30.02,10.0,NNE,10.4,-,N/A,,Unknown,20,2012-10-07 05:55:00
2:15 AM,62.6,44.6,52,30.02,10.0,NNE,8.1,-,N/A,,Unknown,30,2012-10-07 06:15:00
2:35 AM,60.8,44.6,55,30.02,10.0,NNE,8.1,-,N/A,,Unknown,20,2012-10-07 06:35:00
2:55 AM,60.8,44.6,55,30.02,10.0,NNE,9.2,-,N/A,,Unknown,30,2012-10-07 06:55:00
3:15 AM,60.8,44.6,55,30.02,10.0,NNE,6.9,-,N/A,,Unknown,20,2012-10-07 07:15:00
3:35 AM,60.8,44.6,55,30.02,10.0,NNE,9.2,-,N/A,,Unknown,20,2012-10-07 07:35:00
3:55 AM,60.8,44.6,55,30.02,10.0,NNE,9.2,-,N/A,,Unknown,30,2012-10-07 07:55:00
4:15 AM,60.8,42.8,52,30.02,10.0,North,12.7,-,N/A,,Unknown,10,2012-10-07 08:15:00
4:35 AM,60.8,42.8,52,30.01,10.0,NNE,9.2,-,N/A,,Unknown,30,2012-10-07 08:35:00
4:55 AM,60.8,41.0,48,30.02,10.0,North,5.8,17.3,N/A,,Unknown,10,2012-10-07 08:55:00
5:15 AM,60.8,42.8,52,30.03,10.0,North,10.4,17.3,N/A,,Unknown,10,2012-10-07 09:15:00
5:35 AM,60.8,44.6,55,30.05,10.0,NNW,9.2,16.1,N/A,,Unknown,340,2012-10-07 09:35:00
5:55 AM,60.8,44.6,55,30.05,10.0,North,9.2,18.4,N/A,,Unknown,10,2012-10-07 09:55:00
6:15 AM,57.2,48.2,72,30.07,7.0,NNW,6.9,-,N/A,Rain,Rain,340,2012-10-07 10:15:00
6:35 AM,55.4,51.8,88,30.08,10.0,North,5.8,-,0.07,Rain,Rain,350,2012-10-07 10:35:00
6:55 AM,55.4,51.8,88,30.06,4.0,NNE,8.1,-,0.24,Rain,Heavy Rain,20,2012-10-07 10:55:00
7:15 AM,53.6,51.8,94,30.07,10.0,North,6.9,-,0.09,Rain,Heavy Rain,10,2012-10-07 11:15:00
7:35 AM,53.6,51.8,94,30.07,10.0,NNE,6.9,-,0.13,Rain,Light Rain,20,2012-10-07 11:35:00
7:55 AM,53.6,50.0,88,30.06,10.0,NNE,8.1,-,0.13,,Unknown,20,2012-10-07 11:55:00
8:15 AM,53.6,51.8,94,30.06,10.0,North,8.1,-,N/A,Rain,Light Rain,10,2012-10-07 12:15:00
8:35 AM,53.6,51.8,94,30.08,10.0,North,5.8,-,N/A,,Unknown,10,2012-10-07 12:35:00
8:55 AM,55.4,51.8,88,30.07,10.0,NNE,8.1,-,N/A,Rain,Light Rain,20,2012-10-07 12:55:00
9:15 AM,55.4,51.8,88,30.07,10.0,NNE,8.1,-,N/A,,Unknown,20,2012-10-07 13:15:00
9:35 AM,55.4,51.8,88,30.07,10.0,NE,9.2,17.3,N/A,,Overcast,40,2012-10-07 13:35:00
9:55 AM,55.4,51.8,88,30.08,10.0,North,9.2,-,N/A,,Overcast,360,2012-10-07 13:55:00
10:15 AM,55.4,50.0,82,30.07,10.0,North,6.9,-,N/A,,Overcast,10,2012-10-07 14:15:00
10:35 AM,55.4,50.0,82,30.07,10.0,NNE,4.6,-,N/A,,Unknown,20,2012-10-07 14:35:00
10:55 AM,55.4,50.0,82,30.09,5.0,NNW,8.1,-,0.02,Rain,Rain,330,2012-10-07 14:55:00
11:15 AM,55.4,51.8,88,30.08,10.0,North,8.1,-,0.06,Rain,Light Rain,360,2012-10-07 15:15:00
11:35 AM,53.6,51.8,94,30.08,7.0,North,10.4,-,0.09,Rain,Heavy Rain,10,2012-10-07 15:35:00
11:55 AM,53.6,51.8,94,30.09,3.0,NE,9.2,-,0.23,Rain,Heavy Rain,40,2012-10-07 15:55:00
12:15 PM,53.6,51.8,94,30.10,7.0,North,5.8,-,0.08,Rain,Heavy Rain,10,2012-10-07 16:15:00
12:35 PM,53.6,51.8,94,30.07,10.0,NNE,6.9,-,0.12,Rain,Rain,30,2012-10-07 16:35:00
12:55 PM,53.6,50.0,88,30.06,10.0,North,6.9,-,0.16,Rain,Rain,10,2012-10-07 16:55:00
1:35 PM,55.4,51.8,88,30.04,10.0,NNE,6.9,-,0.02,,Unknown,30,2012-10-07 17:35:00
1:55 PM,57.2,53.6,88,30.04,10.0,NNE,6.9,-,0.02,,Unknown,20,2012-10-07 17:55:00
2:15 PM,57.2,53.6,88,30.02,10.0,North,10.4,-,N/A,,Unknown,360,2012-10-07 18:15:00
2:35 PM,57.2,53.6,88,30.02,10.0,North,10.4,-,N/A,,Unknown,10,2012-10-07 18:35:00
2:55 PM,57.2,53.6,88,30.02,10.0,NNE,6.9,-,N/A,,Unknown,30,2012-10-07 18:55:00
3:15 PM,57.2,53.6,88,30.01,10.0,NNE,5.8,-,N/A,,Unknown,30,2012-10-07 19:15:00
3:35 PM,57.2,53.6,88,30.02,10.0,North,5.8,-,N/A,,Unknown,10,2012-10-07 19:35:00
3:55 PM,57.2,53.6,88,30.01,10.0,North,5.8,-,N/A,,Unknown,10,2012-10-07 19:55:00
4:15 PM,57.2,53.6,88,30.01,10.0,NNE,4.6,-,N/A,,Unknown,20,2012-10-07 20:15:00
4:35 PM,57.2,53.6,88,30.00,10.0,North,4.6,-,N/A,,Unknown,10,2012-10-07 20:35:00
4:55 PM,57.2,53.6,88,30.00,10.0,North,3.5,-,N/A,,Unknown,360,2012-10-07 20:55:00
5:15 PM,57.2,53.6,88,30.00,10.0,NNE,4.6,-,N/A,,Unknown,20,2012-10-07 21:15:00
5:35 PM,57.2,53.6,88,30.01,10.0,North,8.1,-,N/A,,Unknown,360,2012-10-07 21:35:00
5:55 PM,55.4,51.8,88,30.02,10.0,North,5.8,-,N/A,,Unknown,360,2012-10-07 21:55:00
6:15 PM,55.4,51.8,88,30.03,10.0,North,8.1,-,N/A,,Unknown,360,2012-10-07 22:15:00
6:35 PM,55.4,51.8,88,30.04,3.0,NNW,3.5,-,N/A,,Drizzle,340,2012-10-07 22:35:00
6:55 PM,55.4,53.6,94,30.04,3.0,NNW,5.8,-,N/A,,Drizzle,340,2012-10-07 22:55:00
7:15 PM,55.4,53.6,94,30.06,3.0,NNW,6.9,-,0.01,,Drizzle,330,2012-10-07 23:15:00
7:35 PM,55.4,53.6,94,30.09,3.0,NNW,8.1,17.3,0.01,,Drizzle,340,2012-10-07 23:35:00
7:55 PM,55.4,53.6,94,30.09,3.0,NNW,9.2,16.1,0.02,,Drizzle,340,2012-10-07 23:55:00
8:15 PM,55.4,51.8,88,30.10,4.0,NNW,10.4,17.3,0.01,,Light Drizzle,340,2012-10-08 00:15:00
8:35 PM,55.4,51.8,88,30.10,4.0,NNW,16.1,24.2,0.01,,Drizzle,330,2012-10-08 00:35:00
8:55 PM,53.6,51.8,94,30.12,5.0,NNW,11.5,17.3,0.01,,Light Drizzle,340,2012-10-08 00:55:00
9:15 PM,53.6,51.8,94,30.12,7.0,North,10.4,18.4,0.01,,Unknown,350,2012-10-08 01:15:00
9:35 PM,53.6,51.8,94,30.12,10.0,North,10.4,16.1,0.01,,Unknown,360,2012-10-08 01:35:00
9:55 PM,53.6,51.8,94,30.13,10.0,North,10.4,-,0.01,,Unknown,360,2012-10-08 01:55:00
10:15 PM,53.6,51.8,94,30.13,10.0,North,9.2,16.1,N/A,,Unknown,360,2012-10-08 02:15:00
10:35 PM,53.6,51.8,94,30.13,10.0,North,10.4,-,N/A,,Unknown,10,2012-10-08 02:35:00
10:55 PM,53.6,51.8,94,30.14,10.0,North,8.1,-,N/A,,Light Drizzle,360,2012-10-08 02:55:00
11:15 PM,53.6,51.8,94,30.13,10.0,North,6.9,-,N/A,,Unknown,10,2012-10-08 03:15:00
11:35 PM,53.6,51.8,94,30.14,10.0,North,6.9,-,N/A,,Unknown,360,2012-10-08 03:35:00
11:55 PM,53.6,51.8,94,30.14,10.0,North,8.1,-,N/A,,Unknown,10,2012-10-08 03:55:00